Theta_e
311 313 314 314 315 318 317 315 313 312 310 308 308 307 307 307 306 311 309 308 309 310 309 313 316 317 318 319 321 321 322 322 324 327 329 329 330 330 329 331 331 332 334 331 337
310 310 313 313 313 317 318 317 316 314 313 311 310 309 310 310 311 311 309 306 304 304 310 315 317 317 318 318 321 320 318 319 320 322 325 329 330 329 331 331 331 334 333 337 337
305 308 309 312 312 315 316 315 317 317 314 312 311 311 311 310 313 309 308 308 304 304 311 316 317 319 319 317 320 320 319 318 317 321 323 326 329 328 330 331 330 333 333 336 336
306 307 305 310 310 313 313 312 314 314 317 314 312 312 311 313 310 313 308 308 307 306 310 314 317 318 318 319 317 321 319 318 320 321 322 323 326 327 328 328 328 329 332 335 335
306 304 305 307 310 311 312 312 311 313 314 317 313 312 311 312 311 308 309 309 314 310 310 313 316 317 317 317 318 321 320 320 319 322 321 322 324 324 325 326 326 328 333 334 335
305 305 304 304 307 308 309 310 311 310 314 316 315 312 313 314 310 308 310 310 313 310 311 311 314 315 317 317 317 319 320 320 320 320 322 322 322 323 323 323 325 327 328 333 334
306 306 304 304 304 308 307 309 311 310 313 314 317 313 313 313 310 309 311 314 314 309 310 312 314 318 315 316 318 319 321 320 320 320 321 321 322 322 320 320 323 324 325 327 331
305 305 305 304 305 306 308 308 309 310 311 313 315 314 315 313 313 311 310 312 315 314 313 310 318 318 317 318 318 318 318 318 318 319 320 320 317 318 318 318 320 321 322 324 325
304 305 305 304 304 305 307 306 309 310 311 312 314 313 313 312 312 311 310 310 312 313 315 313 319 319 319 318 319 318 315 314 313 318 319 320 319 315 314 317 317 315 316 318 322
304 304 304 304 302 304 306 307 310 311 312 312 313 314 311 313 313 312 310 310 312 313 315 316 319 316 318 319 314 319 314 311 310 315 316 318 319 316 315 315 315 314 314 314 314
302 303 304 304 304 303 305 307 310 311 311 313 314 313 312 311 312 312 311 310 311 312 313 314 317 317 317 315 312 313 313 311 312 315 317 317 316 314 313 313 313 312 312 311 312
301 303 303 304 303 304 304 308 309 310 312 312 312 312 311 311 313 312 312 310 312 312 310 313 314 314 314 313 314 314 314 314 314 314 313 313 312 311 311 310 310 311 312 312 311
301 301 302 301 304 304 305 306 306 307 311 313 312 313 310 311 313 313 312 311 314 312 309 311 312 312 313 314 314 314 314 312 312 313 313 313 312 311 310 310 310 310 310 310 311
301 301 302 303 304 304 305 304 307 307 309 313 313 313 311 311 314 312 311 313 315 314 311 309 309 310 312 312 314 315 314 312 315 313 313 311 310 310 310 309 309 310 310 310 310
302 301 302 303 304 304 304 303 306 305 312 312 313 312 311 312 312 312 311 313 315 314 312 311 309 309 310 311 315 316 315 315 316 315 314 312 309 308 309 308 309 308 307 307 308
303 301 300 302 303 304 304 304 306 309 311 314 313 314 314 312 312 312 312 311 312 313 313 311 311 308 309 311 312 313 314 314 313 313 311 312 308 305 307 308 307 307 308 308 309
302 300 299 303 304 304 304 306 308 309 310 310 314 314 313 314 313 313 315 313 314 314 315 312 311 309 310 310 312 313 313 312 310 309 308 309 310 306 307 308 308 308 307 307 308
301 300 300 303 304 303 305 305 307 309 310 310 312 313 314 313 313 312 315 315 312 312 313 312 314 311 310 311 313 314 312 313 310 316 310 309 307 307 308 308 308 306 308 309 307
301 300 302 300 304 304 305 306 307 307 307 311 311 313 313 313 313 312 311 313 312 311 313 312 311 309 309 310 311 315 314 309 308 303 307 309 309 308 308 308 308 308 308 307 307
300 300 301 301 302 303 304 307 306 305 306 308 309 310 311 312 313 313 313 313 312 311 310 315 315 310 310 310 309 312 311 311 308 305 307 302 304 303 308 307 307 307 306 306 307
300 301 300 301 302 301 305 303 302 303 305 307 309 309 310 312 313 313 312 312 312 312 311 312 314 312 311 311 311 312 313 312 310 308 309 306 302 303 306 305 304 304 306 307 307
301 300 301 302 303 301 305 302 304 304 305 305 304 309 310 310 312 313 312 311 311 311 313 312 314 313 312 310 310 310 312 311 312 311 307 307 305 306 305 304 303 304 305 305 307
298 299 301 301 300 301 301 304 304 304 304 304 304 305 307 309 311 311 311 310 310 311 312 312 314 316 314 312 309 312 310 311 311 310 311 309 305 304 304 304 304 305 305 304 307
297 300 300 301 301 300 302 302 305 303 304 304 305 303 305 307 307 309 310 310 309 311 312 312 312 312 313 312 311 312 312 310 311 313 312 311 309 308 305 305 304 303 303 303 305
295 300 298 299 299 300 300 302 301 305 304 304 306 304 304 303 307 306 306 309 309 311 310 311 306 309 310 309 308 310 311 312 311 310 313 311 311 309 307 306 305 305 305 304 305
297 297 295 300 300 299 299 299 302 304 305 305 304 304 306 304 303 303 307 306 307 308 310 309 308 309 304 309 309 309 308 311 311 311 310 310 310 308 307 306 305 306 306 305 304
295 298 300 299 300 299 298 298 300 302 303 302 303 304 305 304 305 305 306 306 307 307 309 309 310 307 309 306 308 310 309 309 308 309 310 311 309 308 308 308 307 306 306 306 306
Wind_Speed
18 17 18 18 19 21 22 17 14 13 11 10 10 8 8 9 11 9 9 7 7 11 9 9 9 8 5 3 1 2 3 5 8 6 4 10 8 3 4 6 4 3 5 16 28
17 19 18 18 18 16 18 20 16 13 11 10 9 7 6 7 10 13 11 10 12 11 5 6 6 6 3 2 3 3 3 6 8 4 7 10 9 8 2 4 5 7 5 24 25
24 20 19 17 19 18 14 12 14 17 13 11 8 7 6 6 6 1 9 13 11 7 5 6 6 4 6 5 5 5 4 6 3 5 8 1 7 9 7 8 7 11 10 16 19
20 19 20 18 18 15 15 11 14 13 16 12 9 7 5 2 4 1 2 2 5 7 7 5 5 4 4 7 8 3 6 7 4 5 4 3 3 3 6 5 2 4 21 17 14
15 20 21 18 14 16 14 15 12 15 14 16 10 7 2 4 7 3 2 2 2 7 11 7 7 5 5 5 7 7 7 1 1 2 5 5 5 6 8 6 5 8 17 15 12
16 18 19 20 16 15 14 14 15 13 13 16 13 8 4 11 3 3 4 1 2 7 8 9 3 7 3 5 6 1 9 6 4 4 3 3 5 4 7 8 9 7 7 13 13
17 17 19 18 17 13 14 11 18 16 13 14 15 12 10 12 2 2 5 4 4 5 4 9 4 3 3 1 4 3 3 4 4 6 5 5 7 8 9 6 10 9 7 8 10
17 16 18 20 15 14 13 15 10 14 13 12 15 13 5 5 17 9 5 4 4 4 4 6 4 6 2 3 2 3 3 4 9 11 4 7 6 13 10 9 8 9 10 9 11
18 16 16 17 20 13 12 12 9 13 14 11 10 5 4 6 6 14 8 6 7 5 2 5 4 4 3 4 3 4 3 7 5 13 6 8 3 9 8 13 11 9 9 9 10
17 15 13 16 15 22 13 9 7 9 11 8 6 2 3 4 7 13 13 8 5 7 5 4 4 5 6 9 7 8 5 6 9 5 5 7 10 11 4 2 5 7 8 8 9
16 14 12 15 18 11 15 5 2 6 11 9 5 3 3 3 7 8 21 12 9 6 6 8 5 11 13 15 14 5 4 9 10 4 3 8 9 11 10 7 8 9 9 9 10
16 14 13 12 16 20 17 4 2 3 6 16 9 14 3 5 4 8 19 11 9 10 11 6 14 11 10 10 11 7 7 4 3 9 3 7 11 11 11 9 10 11 10 11 10
15 14 15 14 12 17 18 13 11 4 4 9 19 5 5 9 5 12 16 13 12 13 15 12 2 15 12 9 11 8 8 6 5 2 7 6 8 12 10 19 16 14 15 10 15
17 14 13 14 5 11 18 25 13 7 3 7 15 10 6 2 7 16 18 12 7 15 11 11 14 5 14 9 7 11 5 7 4 5 2 4 6 7 7 3 12 14 14 17 17
18 14 13 8 4 18 2 23 12 5 6 14 10 14 15 9 9 8 16 9 10 7 10 5 7 7 10 9 7 2 2 6 1 1 4 3 4 6 8 7 7 10 11 10 10
16 14 15 12 21 9 19 23 11 5 9 5 8 14 11 17 10 10 5 1 2 9 7 5 4 6 4 6 7 9 8 6 2 1 4 8 6 6 8 9 7 7 4 2 4
13 15 15 13 7 17 20 10 5 6 6 7 6 13 22 11 10 9 10 7 8 6 6 0 4 2 2 7 6 8 11 2 2 0 6 5 9 11 6 3 1 2 7 7 6
13 12 10 11 14 22 18 5 8 6 3 3 7 14 16 13 11 7 12 9 13 8 11 7 5 11 6 14 6 15 12 5 7 5 2 2 7 5 7 1 3 6 5 0 6
11 7 5 7 16 21 5 8 5 2 5 8 11 7 11 13 8 8 7 14 15 14 6 8 4 12 9 5 9 12 12 4 3 2 2 5 6 7 7 6 4 2 5 6 6
8 5 8 12 19 14 6 8 6 2 2 8 8 9 9 14 11 15 14 11 7 15 11 3 3 8 7 3 7 3 5 6 0 3 4 5 5 5 4 9 6 4 3 3 2
4 1 4 3 14 4 3 6 3 4 3 3 4 9 8 8 12 10 8 9 19 16 12 5 0 1 5 10 13 5 4 5 5 4 3 1 4 3 3 8 9 7 5 2 4
2 1 0 7 3 2 4 4 4 7 5 3 3 3 3 12 13 11 15 11 23 17 18 13 4 4 8 3 10 12 7 14 4 5 3 2 5 1 6 9 10 6 3 4 3
3 2 1 5 3 2 3 4 3 4 7 5 6 6 4 4 5 16 12 11 15 17 14 12 4 5 4 2 3 6 14 11 12 3 5 4 4 4 7 7 6 5 2 2 3
2 2 1 1 1 1 2 2 2 7 6 6 5 7 8 10 4 3 11 7 11 16 16 15 6 8 11 5 7 8 14 18 15 10 14 12 14 8 5 5 6 7 7 7 7
2 2 1 3 5 6 1 2 6 6 5 9 6 10 11 7 1 4 3 5 7 10 7 9 5 8 15 14 9 8 16 18 20 18 12 18 20 16 11 8 8 5 4 8 8
4 3 1 1 2 9 11 6 10 7 8 5 7 12 11 11 13 9 6 5 8 15 10 7 8 5 5 8 11 13 11 19 22 22 22 21 21 19 14 8 6 7 7 8 8
4 5 2 5 5 6 6 8 8 5 9 11 12 7 11 16 13 4 2 8 4 4 6 1 4 3 11 4 8 14 15 17 16 20 18 22 25 25 20 17 13 9 9 9 9
Wind_Direction
285 283 288 288 280 254 241 241 239 241 243 250 260 271 282 296 305 301 246 240 231 267 288 296 282 275 295 242 297 299 276 238 248 242 264 132 172 328 21 120 122 102 48 124 136
318 296 286 285 277 273 245 246 247 242 242 244 252 260 278 304 307 273 245 235 245 262 298 281 273 218 256 233 188 229 219 239 267 307 216 159 178 155 138 165 139 95 69 119 128
290 305 291 282 269 267 258 252 246 246 240 239 243 255 271 315 285 214 213 241 242 230 239 292 291 290 207 210 203 202 227 268 342 28 12 24 191 156 182 201 186 170 158 142 142
283 291 299 283 267 267 256 251 250 250 247 237 232 245 262 301 259 130 165 213 237 212 225 227 239 200 222 202 216 234 246 275 22 38 341 303 210 216 188 208 80 187 162 155 165
276 279 286 300 280 261 267 250 258 249 248 236 224 222 242 221 258 243 151 59 127 164 207 226 224 223 206 217 235 200 274 120 268 30 284 335 289 268 212 220 98 73 150 166 171
282 265 272 291 298 265 271 254 250 254 244 236 220 202 225 244 282 213 223 111 171 171 214 242 270 243 311 272 216 47 238 229 206 223 238 250 254 146 253 267 153 141 183 173 180
289 277 263 267 285 282 267 271 242 244 241 236 224 202 234 231 124 257 205 209 177 184 203 216 256 275 229 219 47 35 286 287 244 226 241 190 263 225 238 297 235 172 204 210 191
301 277 252 256 274 287 259 262 254 241 238 233 224 190 242 302 258 253 213 202 192 184 229 207 297 252 245 73 102 202 238 221 199 197 179 165 250 221 213 223 225 216 203 218 207
327 291 259 248 256 274 278 268 265 236 228 217 183 184 227 248 234 221 210 205 192 168 190 176 185 240 161 184 148 236 224 220 270 186 158 185 271 240 261 211 231 233 223 222 206
329 317 266 246 244 252 276 267 244 216 203 200 191 198 227 219 196 204 197 209 179 175 153 189 216 211 185 208 196 166 203 215 208 192 242 203 242 288 317 17 236 265 275 260 255
322 329 301 254 237 227 245 217 182 211 209 193 171 186 164 147 149 211 192 191 200 194 186 203 211 201 206 209 262 358 265 210 199 142 160 242 251 248 249 236 212 227 238 246 252
306 316 322 282 243 222 225 229 133 71 222 226 186 212 114 161 167 197 182 187 198 198 212 173 229 218 224 224 229 240 263 241 99 139 157 257 252 236 229 241 230 228 226 232 249
286 305 316 301 253 233 213 248 229 292 270 204 214 174 163 172 201 191 184 200 189 205 203 208 228 211 230 225 216 225 218 249 249 69 219 268 263 233 225 224 222 224 230 235 230
273 287 306 319 264 225 216 228 229 184 269 197 188 196 150 319 210 175 197 183 199 214 208 231 247 221 231 228 205 229 206 252 326 85 251 112 290 311 302 276 209 222 228 232 237
264 274 292 277 240 204 177 225 229 115 244 167 159 161 160 168 142 186 187 217 213 202 201 204 209 189 227 200 201 215 343 174 230 318 351 180 272 250 243 288 223 228 222 226 226
255 267 293 288 225 233 206 182 185 203 221 150 138 165 146 189 188 142 177 270 260 211 232 183 336 183 214 205 221 124 103 85 89 203 266 194 212 219 220 231 222 244 273 302 223
246 265 287 256 229 195 180 167 238 208 138 177 169 167 174 172 147 167 166 185 160 138 179 308 213 267 268 179 175 155 147 115 1 169 225 187 205 236 290 284 303 287 92 39 42
234 264 285 241 209 196 170 206 229 195 242 222 161 170 189 162 184 167 175 177 205 221 146 172 205 197 194 185 178 186 184 157 194 194 211 34 236 262 223 13 7 155 128 62 294
216 264 273 266 206 194 193 195 227 191 319 172 156 182 200 194 147 148 199 198 195 202 189 183 235 177 179 179 158 192 224 239 63 47 57 212 258 297 233 261 230 202 171 240 249
196 248 268 275 203 212 220 216 191 209 123 275 179 183 184 189 189 180 181 180 201 217 235 32 115 182 172 214 218 146 161 214 261 170 238 253 235 223 194 229 213 189 193 223 86
204 303 295 282 183 214 197 208 150 220 118 43 288 192 211 172 197 188 191 182 201 193 216 185 180 165 122 211 184 161 208 199 145 226 217 315 249 321 310 145 121 113 92 357 33
120 215 315 161 219 239 218 210 126 140 146 141 57 330 277 215 196 199 205 204 191 192 198 188 163 165 194 209 219 205 212 192 166 205 242 40 270 63 65 117 126 134 81 62 81
141 253 116 163 228 236 328 307 51 140 170 157 168 191 342 293 252 211 196 214 183 190 188 161 187 170 158 315 342 224 226 214 233 316 204 163 256 114 102 100 151 144 119 79 51
137 222 255 243 126 114 335 300 208 214 166 163 211 198 233 280 245 324 226 235 210 195 205 170 182 205 221 162 142 192 211 220 217 218 230 235 261 265 208 224 165 177 194 188 184
134 231 225 193 225 217 117 289 191 242 198 183 204 198 193 216 213 220 222 272 274 218 202 193 193 223 242 255 244 190 198 211 220 229 217 236 249 247 250 240 244 257 214 199 197
162 183 272 299 174 183 204 218 225 196 176 202 221 200 206 221 208 212 214 200 217 209 208 234 234 199 269 256 250 258 248 210 220 224 230 241 248 254 244 258 274 276 274 267 221
216 239 228 228 181 176 200 209 219 198 204 208 207 226 217 222 226 312 12 316 353 290 185 274 201 207 249 262 283 260 244 251 248 229 227 234 239 257 261 257 262 260 255 251 258